Time,TemperatureF,DewpointF,PressureIn,WindDirection,WindDirectionDegrees,WindSpeedMPH,WindSpeedGustMPH,Humidity,HourlyPrecipIn,Conditions,Clouds,dailyrainin,SoftwareType,DateUTC
2013-01-29 00:00:00,35.3,35.0,30.01,WNW,295,1.5,3.0,99,0.00,,---,0.31,VWS V14.01,2013-01-29 05:00:00,
2013-01-29 00:01:00,35.2,35.0,30.01,West,279,0.0,3.0,99,0.00,,---,0.31,VWS V14.01,2013-01-29 05:01:00,
2013-01-29 00:02:00,35.2,35.0,30.02,WSW,240,3.0,3.0,99,0.00,,---,0.31,VWS V14.01,2013-01-29 05:02:00,
2013-01-29 00:03:00,35.1,34.8,30.02,NE,36,1.5,3.0,99,0.00,,---,0.00,VWS V14.01,2013-01-29 05:03:00,
2013-01-29 00:08:00,35.1,34.8,30.02,NE,36,0.0,3.0,99,0.00,,---,0.00,VWS V14.01,2013-01-29 05:08:00,
2013-01-29 00:13:00,35.1,34.8,30.02,NE,36,0.0,1.5,99,0.00,,---,0.00,VWS V14.01,2013-01-29 05:13:00,
2013-01-29 00:18:00,35.0,34.8,30.03,NNE,27,0.0,4.5,99,0.00,,---,0.00,VWS V14.01,2013-01-29 05:18:00,
2013-01-29 00:23:00,34.8,34.5,30.03,NE,37,1.5,4.5,99,0.00,,---,0.00,VWS V14.01,2013-01-29 05:23:00,
2013-01-29 00:28:00,34.7,34.5,30.03,NE,39,3.0,4.5,99,0.00,,---,0.00,VWS V14.01,2013-01-29 05:28:00,
2013-01-29 00:33:00,34.5,34.2,30.03,NNE,32,0.0,1.5,99,0.00,,---,0.00,VWS V14.01,2013-01-29 05:33:00,
2013-01-29 00:38:00,34.3,34.0,30.03,NNE,32,0.0,4.5,99,0.00,,---,0.00,VWS V14.01,2013-01-29 05:38:00,
2013-01-29 00:43:00,34.2,34.0,30.03,NNE,32,0.0,0.0,99,0.00,,---,0.00,VWS V14.01,2013-01-29 05:43:00,
2013-01-29 00:48:00,34.1,33.8,30.03,NNE,32,0.0,3.0,99,0.00,,---,0.00,VWS V14.01,2013-01-29 05:48:00,
2013-01-29 00:53:00,34.0,33.8,30.03,NNE,32,0.0,0.0,99,0.00,,---,0.00,VWS V14.01,2013-01-29 05:53:00,
2013-01-29 00:58:00,33.9,33.7,30.03,NNE,32,0.0,0.0,99,0.00,,---,0.00,VWS V14.01,2013-01-29 05:58:00,
2013-01-29 01:03:00,33.8,33.5,30.04,NNE,32,1.5,1.5,99,0.00,,---,0.00,VWS V14.01,2013-01-29 06:03:00,
2013-01-29 01:08:00,33.6,33.3,30.04,NNE,21,0.0,3.0,99,0.00,,---,0.00,VWS V14.01,2013-01-29 06:08:00,
2013-01-29 01:13:00,33.6,33.3,30.04,NNE,21,0.0,0.0,99,0.00,,---,0.00,VWS V14.01,2013-01-29 06:13:00,
2013-01-29 01:18:00,33.5,33.2,30.04,NNE,23,0.0,4.5,99,0.00,,---,0.00,VWS V14.01,2013-01-29 06:18:00,
2013-01-29 01:23:00,33.4,33.2,30.04,NE,40,0.0,0.0,99,0.00,,---,0.00,VWS V14.01,2013-01-29 06:23:00,
2013-01-29 01:28:00,33.3,33.0,30.04,NE,40,1.5,1.5,99,0.00,,---,0.00,VWS V14.01,2013-01-29 06:28:00,
2013-01-29 01:33:00,33.1,32.8,30.05,NNE,32,0.0,3.0,99,0.00,,---,0.00,VWS V14.01,2013-01-29 06:33:00,
2013-01-29 01:38:00,33.1,32.8,30.05,NE,40,0.0,4.5,99,0.00,,---,0.00,VWS V14.01,2013-01-29 06:38:00,
2013-01-29 01:43:00,33.0,32.8,30.05,NNE,33,0.0,3.0,99,0.00,,---,0.00,VWS V14.01,2013-01-29 06:43:00,
2013-01-29 01:48:00,33.0,32.8,30.06,NE,35,0.0,4.5,99,0.00,,---,0.00,VWS V14.01,2013-01-29 06:48:00,
2013-01-29 01:53:00,32.9,32.7,30.06,NE,49,0.0,3.0,99,0.00,,---,0.00,VWS V14.01,2013-01-29 06:53:00,
2013-01-29 01:58:00,32.8,32.5,30.06,NE,56,1.5,10.5,99,0.00,,---,0.00,VWS V14.01,2013-01-29 06:58:00,
2013-01-29 02:03:00,32.7,32.5,30.07,NE,37,3.0,3.0,99,0.00,,---,0.00,VWS V14.01,2013-01-29 07:03:00,
2013-01-29 02:08:00,32.5,32.2,30.07,NNE,32,1.5,7.5,99,0.00,,---,0.00,VWS V14.01,2013-01-29 07:08:00,
2013-01-29 02:13:00,32.4,32.2,30.07,NE,56,0.0,3.0,99,0.00,,---,0.00,VWS V14.01,2013-01-29 07:13:00,
2013-01-29 02:18:00,32.2,32.0,30.07,NNE,25,0.0,4.5,99,0.00,,---,0.00,VWS V14.01,2013-01-29 07:18:00,
2013-01-29 02:23:00,32.0,31.8,30.07,NE,45,1.5,4.5,99,0.00,,---,0.00,VWS V14.01,2013-01-29 07:23:00,
2013-01-29 02:28:00,31.7,31.5,30.07,NE,39,1.5,6.0,99,0.00,,---,0.00,VWS V14.01,2013-01-29 07:28:00,
2013-01-29 02:33:00,31.5,31.2,30.08,NE,35,1.5,3.0,99,0.00,,---,0.00,VWS V14.01,2013-01-29 07:33:00,
2013-01-29 02:38:00,31.5,31.2,30.08,NNE,21,3.0,6.0,99,0.00,,---,0.00,VWS V14.01,2013-01-29 07:38:00,
2013-01-29 02:43:00,31.4,31.1,30.08,ENE,74,6.0,7.5,99,0.00,,---,0.00,VWS V14.01,2013-01-29 07:43:00,
2013-01-29 02:48:00,31.2,31.0,30.08,NNE,33,0.0,7.5,99,0.00,,---,0.00,VWS V14.01,2013-01-29 07:48:00,
2013-01-29 02:53:00,31.1,30.9,30.08,NNE,21,0.0,3.0,99,0.00,,---,0.00,VWS V14.01,2013-01-29 07:53:00,
2013-01-29 02:58:00,31.0,30.8,30.08,NE,38,0.0,3.0,99,0.00,,---,0.00,VWS V14.01,2013-01-29 07:58:00,
2013-01-29 03:03:00,30.9,30.6,30.08,East,83,1.5,4.5,99,0.00,,---,0.00,VWS V14.01,2013-01-29 08:03:00,
2013-01-29 03:08:00,30.7,30.5,30.08,ENE,67,3.0,6.0,99,0.00,,---,0.00,VWS V14.01,2013-01-29 08:08:00,
2013-01-29 03:13:00,30.6,30.4,30.08,NE,54,4.5,4.5,99,0.00,,---,0.00,VWS V14.01,2013-01-29 08:13:00,
2013-01-29 03:18:00,30.6,30.4,30.08,ENE,66,1.5,6.0,99,0.00,,---,0.00,VWS V14.01,2013-01-29 08:18:00,
2013-01-29 03:23:00,30.5,30.2,30.08,East,95,0.0,1.5,99,0.00,,---,0.00,VWS V14.01,2013-01-29 08:23:00,
2013-01-29 03:28:00,30.5,30.2,30.08,East,85,1.5,4.5,99,0.00,,---,0.00,VWS V14.01,2013-01-29 08:28:00,
2013-01-29 03:33:00,30.5,30.2,30.09,East,85,3.0,4.5,99,0.00,,---,0.00,VWS V14.01,2013-01-29 08:33:00,
2013-01-29 03:38:00,30.5,30.2,30.09,East,85,0.0,4.5,99,0.00,,---,0.00,VWS V14.01,2013-01-29 08:38:00,
2013-01-29 03:43:00,30.5,30.2,30.09,East,85,0.0,1.5,99,0.00,,---,0.00,VWS V14.01,2013-01-29 08:43:00,
2013-01-29 03:48:00,30.5,30.2,30.09,East,85,0.0,1.5,99,0.00,,---,0.00,VWS V14.01,2013-01-29 08:48:00,
2013-01-29 03:53:00,30.5,30.2,30.09,East,85,0.0,1.5,99,0.00,,---,0.00,VWS V14.01,2013-01-29 08:53:00,
2013-01-29 03:58:00,30.5,30.2,30.09,East,85,3.0,3.0,99,0.00,,---,0.00,VWS V14.01,2013-01-29 08:58:00,
2013-01-29 04:03:00,30.5,30.2,30.08,East,85,0.0,1.5,99,0.00,,---,0.00,VWS V14.01,2013-01-29 09:03:00,
2013-01-29 04:08:00,30.5,30.2,30.08,East,85,0.0,1.5,99,0.00,,---,0.00,VWS V14.01,2013-01-29 09:08:00,
2013-01-29 04:13:00,30.5,30.2,30.08,ESE,105,1.5,3.0,99,0.00,,---,0.00,VWS V14.01,2013-01-29 09:13:00,
2013-01-29 04:18:00,30.5,30.2,30.08,ESE,114,0.0,3.0,99,0.00,,---,0.00,VWS V14.01,2013-01-29 09:18:00,
2013-01-29 04:23:00,30.5,30.2,30.08,NE,45,0.0,4.5,99,0.00,,---,0.00,VWS V14.01,2013-01-29 09:23:00,
2013-01-29 04:28:00,30.5,30.2,30.08,NE,47,0.0,4.5,99,0.00,,---,0.00,VWS V14.01,2013-01-29 09:28:00,
2013-01-29 04:33:00,30.5,30.2,30.08,NE,52,0.0,1.5,99,0.00,,---,0.00,VWS V14.01,2013-01-29 09:33:00,
2013-01-29 04:38:00,30.5,30.2,30.08,NE,52,0.0,1.5,99,0.00,,---,0.00,VWS V14.01,2013-01-29 09:38:00,
2013-01-29 04:43:00,30.5,30.2,30.08,ENE,78,1.5,1.5,99,0.00,,---,0.00,VWS V14.01,2013-01-29 09:43:00,
2013-01-29 04:48:00,30.4,30.1,30.08,East,99,3.0,4.5,99,0.00,,---,0.00,VWS V14.01,2013-01-29 09:48:00,
2013-01-29 04:53:00,30.4,30.1,30.08,ESE,112,0.0,0.0,99,0.00,,---,0.00,VWS V14.01,2013-01-29 09:53:00,
2013-01-29 04:58:00,30.4,30.1,30.08,ESE,112,0.0,0.0,99,0.00,,---,0.00,VWS V14.01,2013-01-29 09:58:00,
2013-01-29 05:03:00,30.5,30.2,30.10,ESE,112,0.0,0.0,99,0.00,,---,0.00,VWS V14.01,2013-01-29 10:03:00,
2013-01-29 05:08:00,30.5,30.2,30.10,ESE,112,0.0,0.0,99,0.00,,---,0.00,VWS V14.01,2013-01-29 10:08:00,
2013-01-29 05:13:00,30.5,30.2,30.10,ESE,112,0.0,3.0,99,0.00,,---,0.00,VWS V14.01,2013-01-29 10:13:00,
2013-01-29 05:18:00,30.5,30.2,30.09,ESE,112,0.0,3.0,99,0.00,,---,0.00,VWS V14.01,2013-01-29 10:18:00,
2013-01-29 05:23:00,30.5,30.2,30.09,ESE,112,0.0,0.0,99,0.00,,---,0.00,VWS V14.01,2013-01-29 10:23:00,
2013-01-29 05:28:00,30.5,30.2,30.09,ESE,112,0.0,0.0,99,0.00,,---,0.00,VWS V14.01,2013-01-29 10:28:00,
2013-01-29 05:33:00,30.6,30.4,30.11,ESE,112,0.0,0.0,99,0.00,,---,0.00,VWS V14.01,2013-01-29 10:33:00,
2013-01-29 05:38:00,30.5,30.2,30.11,ESE,112,1.5,1.5,99,0.00,,---,0.00,VWS V14.01,2013-01-29 10:38:00,
2013-01-29 05:43:00,30.5,30.2,30.11,ESE,112,0.0,0.0,99,0.00,,---,0.00,VWS V14.01,2013-01-29 10:43:00,
2013-01-29 05:48:00,30.6,30.4,30.10,ESE,112,0.0,0.0,99,0.00,,---,0.00,VWS V14.01,2013-01-29 10:48:00,
2013-01-29 05:53:00,30.6,30.4,30.10,ESE,112,1.5,1.5,99,0.00,,---,0.00,VWS V14.01,2013-01-29 10:53:00,
2013-01-29 05:58:00,30.6,30.4,30.10,ESE,112,0.0,3.0,99,0.00,,---,0.00,VWS V14.01,2013-01-29 10:58:00,
2013-01-29 06:03:00,30.6,30.4,30.10,ESE,112,0.0,0.0,99,0.00,,---,0.00,VWS V14.01,2013-01-29 11:03:00,
2013-01-29 06:08:00,30.6,30.4,30.10,ESE,112,0.0,0.0,99,0.00,,---,0.00,VWS V14.01,2013-01-29 11:08:00,
2013-01-29 06:13:00,30.6,30.4,30.10,ESE,112,0.0,0.0,99,0.00,,---,0.00,VWS V14.01,2013-01-29 11:13:00,
2013-01-29 06:18:00,30.7,30.5,30.10,ESE,112,1.5,1.5,99,0.00,,---,0.00,VWS V14.01,2013-01-29 11:18:00,
2013-01-29 06:23:00,30.7,30.5,30.10,ESE,112,0.0,0.0,99,0.00,,---,0.00,VWS V14.01,2013-01-29 11:23:00,
2013-01-29 06:28:00,30.7,30.5,30.10,ESE,112,0.0,1.5,99,0.00,,---,0.00,VWS V14.01,2013-01-29 11:28:00,
2013-01-29 06:33:00,30.7,30.5,30.09,ESE,112,0.0,0.0,99,0.00,,---,0.00,VWS V14.01,2013-01-29 11:33:00,
2013-01-29 06:38:00,30.7,30.5,30.09,ESE,113,1.5,3.0,99,0.01,,---,0.01,VWS V14.01,2013-01-29 11:38:00,
2013-01-29 06:43:00,30.7,30.5,30.09,ESE,113,0.0,0.0,99,0.01,,---,0.01,VWS V14.01,2013-01-29 11:43:00,
2013-01-29 06:48:00,30.7,30.5,30.09,ESE,113,0.0,1.5,99,0.01,,---,0.01,VWS V14.01,2013-01-29 11:48:00,
2013-01-29 06:53:00,30.8,30.5,30.09,ESE,114,0.0,1.5,99,0.01,,---,0.01,VWS V14.01,2013-01-29 11:53:00,
2013-01-29 06:58:00,30.8,30.5,30.09,ESE,114,0.0,3.0,99,0.01,,---,0.01,VWS V14.01,2013-01-29 11:58:00,
2013-01-29 07:03:00,30.8,30.5,30.10,ESE,114,0.0,1.5,99,0.01,,---,0.01,VWS V14.01,2013-01-29 12:03:00,
2013-01-29 07:08:00,30.9,30.6,30.10,ESE,118,0.0,3.0,99,0.01,,---,0.01,VWS V14.01,2013-01-29 12:08:00,
2013-01-29 07:13:00,30.9,30.6,30.10,ESE,118,1.5,3.0,99,0.01,,---,0.01,VWS V14.01,2013-01-29 12:13:00,
2013-01-29 07:19:00,30.9,30.6,30.09,ESE,118,0.0,3.0,99,0.01,,---,0.01,VWS V14.01,2013-01-29 12:19:00,
2013-01-29 07:24:00,31.0,30.8,30.09,ESE,120,4.5,4.5,99,0.01,,---,0.01,VWS V14.01,2013-01-29 12:24:00,
2013-01-29 07:28:00,31.0,30.8,30.09,SE,141,3.0,4.5,99,0.01,,---,0.01,VWS V14.01,2013-01-29 12:28:00,
2013-01-29 07:34:00,31.1,30.9,30.09,SE,142,0.0,1.5,99,0.01,,---,0.01,VWS V14.01,2013-01-29 12:34:00,
2013-01-29 07:39:00,31.1,30.9,30.09,SE,142,0.0,1.5,99,0.01,,---,0.01,VWS V14.01,2013-01-29 12:39:00,
2013-01-29 07:44:00,31.1,30.9,30.09,SSE,147,0.0,3.0,99,0.00,,---,0.01,VWS V14.01,2013-01-29 12:44:00,
2013-01-29 07:49:00,31.2,31.0,30.09,SSE,149,0.0,3.0,99,0.00,,---,0.01,VWS V14.01,2013-01-29 12:49:00,
2013-01-29 07:54:00,31.2,31.0,30.09,SSE,149,3.0,4.5,99,0.00,,---,0.01,VWS V14.01,2013-01-29 12:54:00,
2013-01-29 07:59:00,31.2,31.0,30.09,SSE,149,0.0,4.5,99,0.00,,---,0.01,VWS V14.01,2013-01-29 12:59:00,
2013-01-29 08:04:00,31.2,31.0,30.09,SSE,149,1.5,1.5,99,0.00,,---,0.01,VWS V14.01,2013-01-29 13:04:00,
2013-01-29 08:09:00,31.3,31.0,30.09,SSE,149,3.0,3.0,99,0.00,,---,0.01,VWS V14.01,2013-01-29 13:09:00,
2013-01-29 08:14:00,31.3,31.0,30.09,SSE,149,1.5,1.5,99,0.00,,---,0.01,VWS V14.01,2013-01-29 13:14:00,
2013-01-29 08:19:00,31.4,31.1,30.10,SSE,149,0.0,3.0,99,0.00,,---,0.01,VWS V14.01,2013-01-29 13:19:00,
2013-01-29 08:24:00,31.4,31.1,30.10,SSE,149,1.5,1.5,99,0.00,,---,0.01,VWS V14.01,2013-01-29 13:24:00,
2013-01-29 08:29:00,31.5,31.2,30.10,SSE,150,3.0,3.0,99,0.00,,---,0.01,VWS V14.01,2013-01-29 13:29:00,
2013-01-29 08:34:00,31.5,31.2,30.09,SSE,149,1.5,3.0,99,0.00,,---,0.01,VWS V14.01,2013-01-29 13:34:00,
2013-01-29 08:39:00,31.6,31.4,30.09,SSE,149,3.0,3.0,99,0.00,,---,0.01,VWS V14.01,2013-01-29 13:39:00,
2013-01-29 08:44:00,31.7,31.5,30.09,SSE,150,1.5,1.5,99,0.00,,---,0.01,VWS V14.01,2013-01-29 13:44:00,
2013-01-29 08:49:00,31.8,31.5,30.09,SSE,151,3.0,4.5,99,0.00,,---,0.01,VWS V14.01,2013-01-29 13:49:00,
2013-01-29 08:54:00,32.0,31.8,30.09,SSE,151,1.5,3.0,99,0.00,,---,0.01,VWS V14.01,2013-01-29 13:54:00,
2013-01-29 08:59:00,32.1,31.9,30.09,SSE,150,0.0,4.5,99,0.00,,---,0.01,VWS V14.01,2013-01-29 13:59:00,
2013-01-29 09:04:00,32.3,32.0,30.10,SSE,150,3.0,3.0,99,0.00,,---,0.01,VWS V14.01,2013-01-29 14:04:00,
2013-01-29 09:09:00,32.5,32.2,30.10,SE,142,0.0,3.0,99,0.00,,---,0.01,VWS V14.01,2013-01-29 14:09:00,
2013-01-29 09:14:00,32.6,32.3,30.10,SE,142,1.5,4.5,99,0.00,,---,0.01,VWS V14.01,2013-01-29 14:14:00,
2013-01-29 09:19:00,32.7,32.5,30.09,SE,142,1.5,4.5,99,0.00,,---,0.01,VWS V14.01,2013-01-29 14:19:00,
2013-01-29 09:24:00,32.8,32.5,30.09,SE,143,1.5,3.0,99,0.00,,---,0.01,VWS V14.01,2013-01-29 14:24:00,
2013-01-29 09:29:00,32.9,32.7,30.09,SSE,154,1.5,4.5,99,0.00,,---,0.01,VWS V14.01,2013-01-29 14:29:00,
2013-01-29 09:34:00,33.1,33.1,30.09,SE,138,3.0,4.5,100,0.00,,---,0.01,VWS V14.01,2013-01-29 14:34:00,
2013-01-29 09:39:00,33.2,33.2,30.09,SE,138,0.0,4.5,100,0.00,,---,0.01,VWS V14.01,2013-01-29 14:39:00,
2013-01-29 09:44:00,33.4,33.2,30.09,SE,140,3.0,3.0,99,0.00,,---,0.01,VWS V14.01,2013-01-29 14:44:00,
2013-01-29 09:49:00,33.5,33.2,30.08,SE,144,1.5,4.5,99,0.00,,---,0.01,VWS V14.01,2013-01-29 14:49:00,
2013-01-29 09:54:00,33.6,33.6,30.08,SE,128,1.5,3.0,100,0.00,,---,0.01,VWS V14.01,2013-01-29 14:54:00,
2013-01-29 09:59:00,33.8,33.8,30.08,SSE,156,3.0,7.5,100,0.00,,---,0.01,VWS V14.01,2013-01-29 14:59:00,
2013-01-29 10:04:00,34.0,33.8,30.06,East,97,1.5,4.5,99,0.00,,---,0.01,VWS V14.01,2013-01-29 15:04:00,
2013-01-29 10:09:00,34.1,33.8,30.06,SSE,155,0.0,4.5,99,0.00,,---,0.01,VWS V14.01,2013-01-29 15:09:00,
2013-01-29 10:14:00,34.3,34.3,30.06,SE,136,3.0,3.0,100,0.00,,---,0.01,VWS V14.01,2013-01-29 15:14:00,
2013-01-29 10:19:00,34.4,34.4,30.06,SE,144,1.5,4.5,100,0.00,,---,0.01,VWS V14.01,2013-01-29 15:19:00,
2013-01-29 10:24:00,34.5,34.2,30.06,SSE,158,0.0,4.5,99,0.00,,---,0.01,VWS V14.01,2013-01-29 15:24:00,
2013-01-29 10:29:00,34.6,34.3,30.06,SSE,156,1.5,4.5,99,0.00,,---,0.01,VWS V14.01,2013-01-29 15:29:00,
2013-01-29 10:34:00,34.7,34.5,30.05,SE,144,1.5,4.5,99,0.00,,---,0.01,VWS V14.01,2013-01-29 15:34:00,
2013-01-29 10:39:00,34.7,34.5,30.05,SSE,147,3.0,4.5,99,0.00,,---,0.01,VWS V14.01,2013-01-29 15:39:00,
2013-01-29 10:44:00,34.8,34.5,30.05,SE,137,0.0,4.5,99,0.00,,---,0.01,VWS V14.01,2013-01-29 15:44:00,
2013-01-29 10:49:00,34.8,34.8,30.06,SE,138,3.0,6.0,100,0.00,,---,0.01,VWS V14.01,2013-01-29 15:49:00,
2013-01-29 10:54:00,34.9,34.9,30.06,ESE,115,1.5,6.0,100,0.00,,---,0.01,VWS V14.01,2013-01-29 15:54:00,
2013-01-29 10:59:00,35.0,34.8,30.06,SE,129,1.5,6.0,99,0.00,,---,0.01,VWS V14.01,2013-01-29 15:59:00,
2013-01-29 11:04:00,35.1,34.8,30.05,SE,135,3.0,3.0,99,0.00,,---,0.01,VWS V14.01,2013-01-29 16:04:00,
2013-01-29 11:09:00,35.2,35.0,30.05,SE,135,0.0,3.0,99,0.00,,---,0.01,VWS V14.01,2013-01-29 16:09:00,
2013-01-29 11:14:00,35.3,35.3,30.05,SSE,147,3.0,6.0,100,0.00,,---,0.01,VWS V14.01,2013-01-29 16:14:00,
2013-01-29 11:19:00,35.4,35.4,30.04,ESE,121,1.5,6.0,100,0.00,,---,0.01,VWS V14.01,2013-01-29 16:19:00,
2013-01-29 11:24:00,35.5,35.5,30.04,ESE,119,3.0,4.5,100,0.00,,---,0.01,VWS V14.01,2013-01-29 16:24:00,
2013-01-29 11:29:00,35.7,35.5,30.04,SE,125,3.0,4.5,99,0.00,,---,0.01,VWS V14.01,2013-01-29 16:29:00,
2013-01-29 11:34:00,35.9,35.9,30.00,SSE,147,3.0,7.5,100,0.00,,---,0.01,VWS V14.01,2013-01-29 16:34:00,
2013-01-29 11:39:00,36.2,36.2,30.00,SE,131,3.0,7.5,100,0.00,,---,0.01,VWS V14.01,2013-01-29 16:39:00,
2013-01-29 11:44:00,36.4,36.2,30.00,SSE,147,3.0,6.0,99,0.00,,---,0.01,VWS V14.01,2013-01-29 16:44:00,
2013-01-29 11:49:00,36.6,36.6,29.99,SSE,163,3.0,6.0,100,0.00,,---,0.01,VWS V14.01,2013-01-29 16:49:00,
2013-01-29 11:54:00,36.7,36.7,29.99,SSE,161,1.5,3.0,100,0.00,,---,0.01,VWS V14.01,2013-01-29 16:54:00,
2013-01-29 11:59:00,36.9,36.7,29.99,SE,144,0.0,6.0,99,0.00,,---,0.01,VWS V14.01,2013-01-29 16:59:00,
2013-01-29 12:04:00,37.0,37.0,30.01,SE,139,1.5,4.5,100,0.00,,---,0.01,VWS V14.01,2013-01-29 17:04:00,
2013-01-29 12:09:00,37.0,37.0,30.01,SE,124,4.5,7.5,100,0.00,,---,0.01,VWS V14.01,2013-01-29 17:09:00,
2013-01-29 12:14:00,37.1,37.1,30.01,ESE,111,4.5,4.5,100,0.00,,---,0.01,VWS V14.01,2013-01-29 17:14:00,
2013-01-29 12:19:00,37.2,37.0,30.00,East,95,1.5,4.5,99,0.00,,---,0.01,VWS V14.01,2013-01-29 17:19:00,
2013-01-29 12:24:00,37.3,37.0,30.00,SE,129,1.5,4.5,99,0.00,,---,0.01,VWS V14.01,2013-01-29 17:24:00,
2013-01-29 12:29:00,37.3,37.0,30.00,ESE,106,1.5,4.5,99,0.00,,---,0.01,VWS V14.01,2013-01-29 17:29:00,
2013-01-29 12:34:00,37.4,37.2,30.00,ESE,109,0.0,0.0,99,0.00,,---,0.01,VWS V14.01,2013-01-29 17:34:00,
2013-01-29 12:39:00,37.4,37.2,30.00,ESE,109,0.0,1.5,99,0.00,,---,0.01,VWS V14.01,2013-01-29 17:39:00,
2013-01-29 12:44:00,37.5,37.2,30.00,ESE,109,0.0,0.0,99,0.00,,---,0.01,VWS V14.01,2013-01-29 17:44:00,
2013-01-29 12:49:00,37.5,37.2,30.00,ESE,109,3.0,3.0,99,0.01,,---,0.02,VWS V14.01,2013-01-29 17:49:00,
2013-01-29 12:54:00,37.5,37.2,30.00,SSE,149,4.5,4.5,99,0.01,,---,0.02,VWS V14.01,2013-01-29 17:54:00,
2013-01-29 12:59:00,37.4,37.2,30.00,SE,143,3.0,6.0,99,0.01,,---,0.02,VWS V14.01,2013-01-29 17:59:00,
2013-01-29 13:04:00,37.4,37.2,29.96,SE,124,6.0,7.5,99,0.12,,---,0.13,VWS V14.01,2013-01-29 18:04:00,
2013-01-29 13:09:00,37.4,37.2,29.96,East,97,7.5,16.5,99,0.12,,---,0.13,VWS V14.01,2013-01-29 18:09:00,
2013-01-29 13:14:00,37.5,37.2,29.96,NE,46,1.5,7.5,99,0.12,,---,0.13,VWS V14.01,2013-01-29 18:14:00,
2013-01-29 13:19:00,37.8,37.5,29.93,SE,132,3.0,7.5,99,0.12,,---,0.13,VWS V14.01,2013-01-29 18:19:00,
2013-01-29 13:24:00,38.1,37.8,29.93,ESE,116,3.0,6.0,99,0.12,,---,0.13,VWS V14.01,2013-01-29 18:24:00,
2013-01-29 13:29:00,38.5,38.2,29.93,ESE,112,4.5,7.5,99,0.12,,---,0.13,VWS V14.01,2013-01-29 18:29:00,
2013-01-29 13:34:00,38.8,38.5,29.92,ESE,118,3.0,7.5,99,0.12,,---,0.13,VWS V14.01,2013-01-29 18:34:00,
2013-01-29 13:39:00,39.0,38.7,29.92,SSE,153,3.0,7.5,99,0.12,,---,0.13,VWS V14.01,2013-01-29 18:39:00,
2013-01-29 13:44:00,39.2,38.9,29.92,SSE,161,4.5,7.5,99,0.12,,---,0.13,VWS V14.01,2013-01-29 18:44:00,
2013-01-29 13:49:00,39.4,39.1,29.92,SSW,206,1.5,7.5,99,0.12,,---,0.13,VWS V14.01,2013-01-29 18:49:00,
2013-01-29 13:54:00,39.5,39.2,29.92,SW,235,0.0,3.0,99,0.11,,---,0.13,VWS V14.01,2013-01-29 18:54:00,
2013-01-29 13:59:00,39.6,39.3,29.92,South,173,3.0,4.5,99,0.11,,---,0.13,VWS V14.01,2013-01-29 18:59:00,
2013-01-29 14:04:00,39.7,39.4,29.92,South,182,1.5,3.0,99,0.00,,---,0.13,VWS V14.01,2013-01-29 19:04:00,
2013-01-29 14:09:00,39.8,39.5,29.92,SSE,156,1.5,4.5,99,0.00,,---,0.13,VWS V14.01,2013-01-29 19:09:00,
2013-01-29 14:14:00,40.0,39.7,29.92,SSE,156,0.0,3.0,99,0.00,,---,0.13,VWS V14.01,2013-01-29 19:14:00,
2013-01-29 14:20:00,40.3,40.0,29.91,SSE,156,3.0,4.5,99,0.00,,---,0.13,VWS V14.01,2013-01-29 19:20:00,
2013-01-29 14:25:00,40.6,40.3,29.91,SSE,156,1.5,3.0,99,0.06,,---,0.19,VWS V14.01,2013-01-29 19:25:00,
2013-01-29 14:30:00,40.9,40.6,29.91,SSE,156,1.5,4.5,99,0.06,,---,0.19,VWS V14.01,2013-01-29 19:30:00,
2013-01-29 14:35:00,41.2,40.9,29.91,SE,143,3.0,4.5,99,0.06,,---,0.19,VWS V14.01,2013-01-29 19:35:00,
2013-01-29 14:40:00,41.3,41.0,29.91,South,170,1.5,4.5,99,0.06,,---,0.19,VWS V14.01,2013-01-29 19:40:00,
2013-01-29 14:45:00,41.4,41.1,29.91,SSE,168,4.5,4.5,99,0.06,,---,0.19,VWS V14.01,2013-01-29 19:45:00,
2013-01-29 14:50:00,41.6,41.3,29.90,South,170,1.5,6.0,99,0.06,,---,0.19,VWS V14.01,2013-01-29 19:50:00,
2013-01-29 14:55:00,41.7,41.4,29.90,South,175,3.0,4.5,99,0.06,,---,0.19,VWS V14.01,2013-01-29 19:55:00,
2013-01-29 14:58:00,41.8,41.5,29.90,SSE,165,3.0,6.0,99,0.06,,---,0.19,VWS V14.01,2013-01-29 19:58:00,
2013-01-29 15:03:00,41.9,41.6,29.89,SSE,159,3.0,6.0,99,0.06,,---,0.19,VWS V14.01,2013-01-29 20:03:00,
2013-01-29 15:08:00,42.0,41.7,29.89,SSE,159,4.5,6.0,99,0.06,,---,0.19,VWS V14.01,2013-01-29 20:08:00,
2013-01-29 15:13:00,42.1,41.8,29.89,SSE,158,1.5,3.0,99,0.06,,---,0.19,VWS V14.01,2013-01-29 20:13:00,
2013-01-29 15:18:00,42.2,41.9,29.89,SSE,153,3.0,9.0,99,0.06,,---,0.19,VWS V14.01,2013-01-29 20:18:00,
2013-01-29 15:23:00,42.2,41.9,29.89,South,174,4.5,4.5,99,0.06,,---,0.19,VWS V14.01,2013-01-29 20:23:00,
2013-01-29 15:28:00,42.3,42.0,29.89,SSE,150,6.0,7.5,99,0.06,,---,0.19,VWS V14.01,2013-01-29 20:28:00,
2013-01-29 15:33:00,42.3,42.0,29.89,South,177,1.5,1.5,99,0.00,,---,0.19,VWS V14.01,2013-01-29 20:33:00,
2013-01-29 15:38:00,42.3,41.8,29.89,South,175,3.0,4.5,98,0.00,,---,0.19,VWS V14.01,2013-01-29 20:38:00,
2013-01-29 15:43:00,42.4,42.1,29.89,SSE,157,4.5,4.5,99,0.00,,---,0.19,VWS V14.01,2013-01-29 20:43:00,
2013-01-29 15:48:00,42.4,42.1,29.90,South,172,3.0,4.5,99,0.00,,---,0.19,VWS V14.01,2013-01-29 20:48:00,
2013-01-29 15:53:00,42.4,42.1,29.90,SSW,206,0.0,1.5,99,0.01,,---,0.20,VWS V14.01,2013-01-29 20:53:00,
2013-01-29 15:58:00,42.3,41.8,29.90,SSE,159,1.5,4.5,98,0.01,,---,0.20,VWS V14.01,2013-01-29 20:58:00,
2013-01-29 16:03:00,42.3,41.8,29.90,SE,135,6.0,6.0,98,0.01,,---,0.20,VWS V14.01,2013-01-29 21:03:00,
2013-01-29 16:08:00,42.4,42.1,29.90,SSE,159,4.5,9.0,99,0.01,,---,0.20,VWS V14.01,2013-01-29 21:08:00,
2013-01-29 16:13:00,42.4,42.1,29.90,SSW,192,3.0,4.5,99,0.01,,---,0.20,VWS V14.01,2013-01-29 21:13:00,
2013-01-29 16:18:00,42.5,42.2,29.90,South,173,1.5,7.5,99,0.08,,---,0.27,VWS V14.01,2013-01-29 21:18:00,
2013-01-29 16:23:00,42.6,42.3,29.90,South,187,4.5,6.0,99,0.08,,---,0.27,VWS V14.01,2013-01-29 21:23:00,
2013-01-29 16:28:00,42.6,42.3,29.90,SSE,163,4.5,6.0,99,0.08,,---,0.27,VWS V14.01,2013-01-29 21:28:00,
2013-01-29 16:33:00,42.7,42.4,29.88,South,170,3.0,6.0,99,0.08,,---,0.27,VWS V14.01,2013-01-29 21:33:00,
2013-01-29 16:39:00,42.7,42.4,29.88,South,173,4.5,6.0,99,0.08,,---,0.27,VWS V14.01,2013-01-29 21:39:00,
2013-01-29 16:44:00,42.7,42.4,29.88,SSE,148,6.0,6.0,99,0.08,,---,0.27,VWS V14.01,2013-01-29 21:44:00,
2013-01-29 16:49:00,42.8,42.5,29.87,SSE,161,1.5,7.5,99,0.08,,---,0.27,VWS V14.01,2013-01-29 21:49:00,
2013-01-29 16:54:00,42.9,42.6,29.87,South,177,1.5,3.0,99,0.08,,---,0.27,VWS V14.01,2013-01-29 21:54:00,
2013-01-29 16:59:00,43.1,42.8,29.87,South,176,3.0,4.5,99,0.08,,---,0.27,VWS V14.01,2013-01-29 21:59:00,
2013-01-29 17:04:00,43.2,42.9,29.87,South,184,1.5,3.0,99,0.07,,---,0.27,VWS V14.01,2013-01-29 22:04:00,
2013-01-29 17:09:00,43.2,42.9,29.87,South,170,3.0,3.0,99,0.07,,---,0.27,VWS V14.01,2013-01-29 22:09:00,
2013-01-29 17:14:00,43.2,42.9,29.87,South,190,3.0,4.5,99,0.07,,---,0.27,VWS V14.01,2013-01-29 22:14:00,
2013-01-29 17:19:00,43.3,43.0,29.87,South,180,1.5,4.5,99,0.07,,---,0.27,VWS V14.01,2013-01-29 22:19:00,
2013-01-29 17:24:00,43.3,43.0,29.87,SSE,167,3.0,3.0,99,0.00,,---,0.27,VWS V14.01,2013-01-29 22:24:00,
2013-01-29 17:29:00,43.5,43.2,29.87,South,170,3.0,6.0,99,0.00,,---,0.27,VWS V14.01,2013-01-29 22:29:00,
2013-01-29 17:34:00,43.5,43.2,29.88,South,189,3.0,4.5,99,0.00,,---,0.27,VWS V14.01,2013-01-29 22:34:00,
2013-01-29 17:39:00,43.4,43.1,29.88,SSW,192,1.5,4.5,99,0.00,,---,0.27,VWS V14.01,2013-01-29 22:39:00,
2013-01-29 17:44:00,43.4,43.1,29.88,South,178,1.5,6.0,99,0.00,,---,0.27,VWS V14.01,2013-01-29 22:44:00,
2013-01-29 17:49:00,43.4,43.1,29.88,SSW,193,1.5,6.0,99,0.00,,---,0.27,VWS V14.01,2013-01-29 22:49:00,
2013-01-29 17:54:00,43.6,43.3,29.88,SSW,192,1.5,3.0,99,0.00,,---,0.27,VWS V14.01,2013-01-29 22:54:00,
2013-01-29 17:59:00,43.5,43.2,29.88,SSW,192,1.5,3.0,99,0.00,,---,0.27,VWS V14.01,2013-01-29 22:59:00,
2013-01-29 18:04:00,43.7,43.4,29.88,South,182,1.5,3.0,99,0.00,,---,0.27,VWS V14.01,2013-01-29 23:04:00,
2013-01-29 18:09:00,43.8,43.5,29.88,SSW,196,1.5,6.0,99,0.00,,---,0.27,VWS V14.01,2013-01-29 23:09:00,
2013-01-29 18:14:00,43.8,43.5,29.88,SSW,196,1.5,3.0,99,0.00,,---,0.27,VWS V14.01,2013-01-29 23:14:00,
2013-01-29 18:19:00,44.0,43.7,29.87,South,184,1.5,4.5,99,0.12,,---,0.39,VWS V14.01,2013-01-29 23:19:00,
2013-01-29 18:24:00,44.3,44.0,29.87,South,184,1.5,3.0,99,0.12,,---,0.39,VWS V14.01,2013-01-29 23:24:00,
2013-01-29 18:29:00,44.6,44.3,29.87,SSW,199,1.5,6.0,99,0.12,,---,0.39,VWS V14.01,2013-01-29 23:29:00,
2013-01-29 18:34:00,44.9,44.9,29.86,South,188,1.5,4.5,100,0.12,,---,0.39,VWS V14.01,2013-01-29 23:34:00,
2013-01-29 18:39:00,45.3,45.3,29.86,South,185,1.5,4.5,100,0.12,,---,0.39,VWS V14.01,2013-01-29 23:39:00,
2013-01-29 18:44:00,45.6,45.6,29.86,South,190,3.0,4.5,100,0.12,,---,0.39,VWS V14.01,2013-01-29 23:44:00,
2013-01-29 18:49:00,46.0,46.0,29.86,South,190,3.0,4.5,100,0.12,,---,0.39,VWS V14.01,2013-01-29 23:49:00,
2013-01-29 18:54:00,46.1,46.1,29.86,SSW,194,3.0,4.5,100,0.12,,---,0.39,VWS V14.01,2013-01-29 23:54:00,
2013-01-29 18:59:00,46.3,46.0,29.86,South,186,3.0,6.0,99,0.12,,---,0.39,VWS V14.01,2013-01-29 23:59:00,
2013-01-29 19:04:00,46.6,46.3,29.85,South,189,3.0,4.5,99,0.12,,---,0.39,VWS V14.01,2013-01-30 00:04:00,
2013-01-29 19:09:00,47.0,47.0,29.85,SSW,193,3.0,4.5,100,0.12,,---,0.39,VWS V14.01,2013-01-30 00:09:00,
2013-01-29 19:14:00,47.3,47.3,29.85,SSW,193,3.0,3.0,100,0.12,,---,0.39,VWS V14.01,2013-01-30 00:14:00,
2013-01-29 19:19:00,47.7,47.7,29.85,South,187,1.5,3.0,100,0.12,,---,0.39,VWS V14.01,2013-01-30 00:19:00,
2013-01-29 19:24:00,47.8,47.8,29.85,South,183,4.5,4.5,100,0.00,,---,0.39,VWS V14.01,2013-01-30 00:24:00,
2013-01-29 19:29:00,47.9,47.9,29.85,South,182,1.5,6.0,100,0.00,,---,0.39,VWS V14.01,2013-01-30 00:29:00,
2013-01-29 19:34:00,48.3,48.0,29.85,SSW,209,4.5,4.5,99,0.00,,---,0.39,VWS V14.01,2013-01-30 00:34:00,
2013-01-29 19:39:00,48.6,48.3,29.85,WSW,242,4.5,4.5,99,0.00,,---,0.39,VWS V14.01,2013-01-30 00:39:00,
2013-01-29 19:44:00,49.0,49.0,29.85,SSW,194,1.5,4.5,100,0.00,,---,0.39,VWS V14.01,2013-01-30 00:44:00,
2013-01-29 19:49:00,49.2,48.9,29.84,SSW,200,4.5,6.0,99,0.00,,---,0.39,VWS V14.01,2013-01-30 00:49:00,
2013-01-29 19:54:00,49.5,49.2,29.84,South,175,3.0,7.5,99,0.00,,---,0.39,VWS V14.01,2013-01-30 00:54:00,
2013-01-29 19:59:00,49.7,49.4,29.84,SSW,200,4.5,7.5,99,0.00,,---,0.39,VWS V14.01,2013-01-30 00:59:00,
2013-01-29 20:04:00,49.8,49.3,29.84,SW,230,4.5,6.0,98,0.00,,---,0.39,VWS V14.01,2013-01-30 01:04:00,
2013-01-29 20:09:00,50.1,49.6,29.84,SW,226,3.0,7.5,98,0.01,,---,0.40,VWS V14.01,2013-01-30 01:09:00,
2013-01-29 20:14:00,50.2,49.7,29.84,SW,226,3.0,4.5,98,0.01,,---,0.40,VWS V14.01,2013-01-30 01:14:00,
2013-01-29 20:19:00,50.3,49.5,29.85,WSW,237,1.5,4.5,97,0.01,,---,0.40,VWS V14.01,2013-01-30 01:19:00,
2013-01-29 20:24:00,50.4,49.6,29.85,SW,227,1.5,6.0,97,0.01,,---,0.40,VWS V14.01,2013-01-30 01:24:00,
2013-01-29 20:29:00,50.5,49.7,29.85,SW,228,1.5,6.0,97,0.01,,---,0.40,VWS V14.01,2013-01-30 01:29:00,
2013-01-29 20:34:00,50.4,49.6,29.84,SW,234,1.5,4.5,97,0.01,,---,0.40,VWS V14.01,2013-01-30 01:34:00,
2013-01-29 20:39:00,50.4,49.6,29.84,WSW,244,0.0,4.5,97,0.01,,---,0.40,VWS V14.01,2013-01-30 01:39:00,
2013-01-29 20:44:00,50.4,49.6,29.84,SSW,213,3.0,4.5,97,0.01,,---,0.40,VWS V14.01,2013-01-30 01:44:00,
2013-01-29 20:49:00,50.5,49.7,29.84,SSW,199,1.5,4.5,97,0.01,,---,0.40,VWS V14.01,2013-01-30 01:49:00,
2013-01-29 20:54:00,50.6,49.8,29.84,SSW,194,1.5,3.0,97,0.02,,---,0.41,VWS V14.01,2013-01-30 01:54:00,
2013-01-29 20:59:00,50.6,49.8,29.84,SSW,194,1.5,3.0,97,0.02,,---,0.41,VWS V14.01,2013-01-30 01:59:00,
2013-01-29 21:04:00,50.5,49.7,29.84,West,273,1.5,3.0,97,0.02,,---,0.41,VWS V14.01,2013-01-30 02:04:00,
2013-01-29 21:09:00,50.4,49.6,29.84,SW,236,3.0,3.0,97,0.02,,---,0.41,VWS V14.01,2013-01-30 02:09:00,
2013-01-29 21:14:00,50.4,49.9,29.84,SW,223,3.0,4.5,98,0.01,,---,0.41,VWS V14.01,2013-01-30 02:14:00,
2013-01-29 21:19:00,50.5,50.0,29.83,West,272,1.5,4.5,98,0.01,,---,0.41,VWS V14.01,2013-01-30 02:19:00,
2013-01-29 21:24:00,50.6,50.1,29.83,SW,223,3.0,3.0,98,0.01,,---,0.41,VWS V14.01,2013-01-30 02:24:00,
2013-01-29 21:30:00,50.7,50.2,29.83,SW,223,1.5,4.5,98,0.01,,---,0.41,VWS V14.01,2013-01-30 02:30:00,
2013-01-29 21:35:00,50.8,50.3,29.83,SSW,195,1.5,4.5,98,0.01,,---,0.41,VWS V14.01,2013-01-30 02:35:00,
2013-01-29 21:40:00,50.9,50.4,29.83,SSW,192,3.0,4.5,98,0.01,,---,0.41,VWS V14.01,2013-01-30 02:40:00,
2013-01-29 21:45:00,50.9,50.4,29.83,South,183,1.5,3.0,98,0.01,,---,0.41,VWS V14.01,2013-01-30 02:45:00,
2013-01-29 21:50:00,51.1,50.6,29.83,SSW,196,3.0,4.5,98,0.01,,---,0.41,VWS V14.01,2013-01-30 02:50:00,
2013-01-29 21:55:00,51.2,50.4,29.83,South,190,3.0,7.5,97,0.01,,---,0.41,VWS V14.01,2013-01-30 02:55:00,
2013-01-29 22:00:00,51.2,50.4,29.83,South,188,1.5,7.5,97,0.01,,---,0.41,VWS V14.01,2013-01-30 03:00:00,
2013-01-29 22:05:00,51.3,50.8,29.83,SSW,196,3.0,6.0,98,0.00,,---,0.41,VWS V14.01,2013-01-30 03:05:00,
2013-01-29 22:10:00,51.5,50.7,29.83,SSW,199,3.0,6.0,97,0.00,,---,0.41,VWS V14.01,2013-01-30 03:10:00,
2013-01-29 22:15:00,51.5,50.7,29.83,SSW,192,1.5,3.0,97,0.00,,---,0.41,VWS V14.01,2013-01-30 03:15:00,
2013-01-29 22:20:00,51.6,50.8,29.83,South,174,3.0,4.5,97,0.00,,---,0.41,VWS V14.01,2013-01-30 03:20:00,
2013-01-29 22:25:00,51.8,51.0,29.83,South,173,1.5,7.5,97,0.00,,---,0.41,VWS V14.01,2013-01-30 03:25:00,
2013-01-29 22:30:00,51.9,51.1,29.83,SSW,201,1.5,7.5,97,0.00,,---,0.41,VWS V14.01,2013-01-30 03:30:00,
2013-01-29 22:35:00,51.9,51.1,29.83,South,187,3.0,4.5,97,0.00,,---,0.41,VWS V14.01,2013-01-30 03:35:00,
2013-01-29 22:40:00,52.0,51.2,29.83,South,189,1.5,7.5,97,0.00,,---,0.41,VWS V14.01,2013-01-30 03:40:00,
2013-01-29 22:45:00,52.1,51.3,29.83,South,185,3.0,4.5,97,0.01,,---,0.42,VWS V14.01,2013-01-30 03:45:00,
2013-01-29 22:50:00,52.1,51.3,29.82,South,177,4.5,4.5,97,0.01,,---,0.42,VWS V14.01,2013-01-30 03:50:00,
2013-01-29 22:55:00,52.0,51.2,29.82,SSW,192,3.0,3.0,97,0.01,,---,0.42,VWS V14.01,2013-01-30 03:55:00,
2013-01-29 23:00:00,51.9,51.1,29.82,South,180,3.0,4.5,97,0.01,,---,0.42,VWS V14.01,2013-01-30 04:00:00,
2013-01-29 23:05:00,51.7,50.9,29.80,South,182,1.5,4.5,97,0.01,,---,0.42,VWS V14.01,2013-01-30 04:05:00,
2013-01-29 23:10:00,51.6,50.8,29.80,SSE,163,3.0,6.0,97,0.01,,---,0.42,VWS V14.01,2013-01-30 04:10:00,
2013-01-29 23:15:00,51.4,50.6,29.80,South,175,4.5,6.0,97,0.01,,---,0.42,VWS V14.01,2013-01-30 04:15:00,
2013-01-29 23:20:00,51.1,50.3,29.80,South,179,1.5,6.0,97,0.01,,---,0.42,VWS V14.01,2013-01-30 04:20:00,
2013-01-29 23:25:00,50.8,50.0,29.80,South,178,4.5,6.0,97,0.01,,---,0.42,VWS V14.01,2013-01-30 04:25:00,
2013-01-29 23:30:00,50.6,49.8,29.80,SSE,156,4.5,7.5,97,0.01,,---,0.42,VWS V14.01,2013-01-30 04:30:00,
2013-01-29 23:35:00,50.3,49.5,29.79,SSE,159,4.5,6.0,97,0.01,,---,0.42,VWS V14.01,2013-01-30 04:35:00,
2013-01-29 23:40:00,50.1,49.6,29.79,SSE,152,3.0,7.5,98,0.01,,---,0.42,VWS V14.01,2013-01-30 04:40:00,
2013-01-29 23:45:00,49.9,49.4,29.79,SSE,159,4.5,6.0,98,0.02,,---,0.44,VWS V14.01,2013-01-30 04:45:00,
2013-01-29 23:50:00,49.9,49.4,29.78,South,171,4.5,9.0,98,0.02,,---,0.44,VWS V14.01,2013-01-30 04:50:00,
2013-01-29 23:55:00,49.8,49.3,29.78,SSE,158,6.0,6.0,98,0.02,,---,0.44,VWS V14.01,2013-01-30 04:55:00,